[[{"header":{"parameterUnit":"m.s-1","parameterCategory":1,"la1":30.2991,"la2":30.254,"lo1":-89.0895,"lo2":-89.0444,"dy":0.0017,"dx":0.0017,"nx":28,"ny":28,"refTime":"2023-08-12T03:00:00:Z","depth":0,"parameterNumber":2,"parameterNumberName":"U-component_of_WINDS"},"data":[0,0,0,0,0,0,0,0,0,0,0,0,0,0,0,0,0,0,0,0,0,0,0,0,0,0,0,0,0,0,0,0,0,0,0,0,0,0,0,0,0,0,0,0,0,0,0,0,0,0,0,0,0,0,0,0,0,0,1.5989,1.599,0,1.6059,1.606,1.6061,1.6058,1.6057,1.6056,1.6055,1.6126,1.6129,1.6131,0,0,0,0,0,0,0,0,0,0,0,0,0,1.5853,1.5855,1.5989,1.599,1.5991,1.6059,1.606,1.6061,1.6058,1.6057,1.6055,1.6054,1.6125,1.6128,1.6132,0,0,0,0,0,0,0,0,0,0,0,0,0,1.5916,1.5856,1.5989,1.5998,1.5999,1.6059,1.606,1.6061,1.6058,1.6057,1.6055,1.6054,1.6124,1.6128,1.6132,1.6188,0,0,1.6145,1.6147,0,0,0,0,0,0,0,0,1.5913,1.5921,1.5995,1.5997,1.5999,1.6048,1.6038,1.6104,1.6058,1.6036,1.6055,1.6053,1.6101,1.6107,1.6124,1.6191,1.6195,1.6145,1.6148,1.615,1.6151,0,0,0,0,0,0,0,1.5908,1.5918,1.6017,1.5996,1.5999,1.5998,1.6005,1.6051,1.6076,1.6038,1.6037,1.6046,1.6102,1.612,1.6125,1.6196,1.6145,1.6149,1.6152,1.6153,1.6314,1.6316,0,0,0,0,0,0,1.5902,1.5915,1.6015,1.6019,1.5951,1.6002,1.601,1.6034,1.6075,1.608,1.6047,1.6045,1.6113,1.612,1.6128,1.6196,1.615,1.6154,1.6156,1.6313,1.6315,1.6316,0,0,0,0,0,0,1.5899,1.5911,1.6012,1.5967,1.598,1.6006,1.6033,1.6036,1.6054,1.6083,1.6087,1.606,1.6112,1.6122,1.6173,1.6199,1.6156,1.616,1.631,1.6313,1.6316,1.6333,0,0,0,0,0,0,1.5895,1.591,1.5931,1.5967,1.5982,1.6056,1.6034,1.6039,1.6061,1.606,1.6096,1.6101,1.6112,1.6167,1.6178,1.6204,1.6163,1.6308,1.6312,1.6315,1.6331,1.6336,1.6341,0,0,0,0,0,1.589,1.5933,1.5932,1.5944,1.6009,1.6057,1.6066,1.6077,1.6063,1.6085,1.6104,1.61,1.6195,1.6172,1.6184,1.6212,1.6307,1.6311,1.6314,1.6328,1.6335,1.6341,0,0,0,0,0,0,1.5898,1.5938,1.5937,1.5993,1.6022,1.6057,1.6084,1.6084,1.6118,1.6115,1.6128,1.6136,1.6188,1.6206,1.618,1.6269,1.6249,1.6255,1.6255,1.6262,1.6267,1.6261,1.6166,0,0,0,0,0,1.5906,1.5942,1.5975,1.6021,1.6036,1.6058,1.6079,1.6086,1.6116,1.6128,1.6151,1.6181,1.6217,1.6241,1.6276,1.6334,1.6342,1.6359,1.6364,1.6368,1.6373,1.6406,1.6414,1.6329,1.6329,1.6329,0,0,1.5923,1.5949,1.5971,1.6023,1.6046,1.6084,1.6068,1.6107,1.6135,1.6134,1.6184,1.6203,1.6237,1.6292,1.6317,1.6308,1.6399,1.6373,1.6377,1.6379,1.641,1.6418,1.6425,1.6332,1.6331,1.6331,0,0,1.5973,1.5996,1.6037,1.6062,1.6098,1.6113,1.6123,1.6158,1.617,1.6221,1.6222,1.6255,1.6318,1.6342,1.6363,1.6425,1.6423,1.6437,1.6463,1.6495,1.6501,1.6507,1.6529,1.6536,1.6442,1.6442,1.6442,0,1.5989,1.6045,1.6058,1.6099,1.6122,1.6125,1.6166,1.6189,1.6235,1.6251,1.624,1.632,1.6343,1.6404,1.6419,1.6436,1.6448,1.6431,1.6499,1.6505,1.6511,1.6532,1.654,1.6443,1.6443,1.6443,1.6443,0,1.6063,1.6102,1.6131,1.6176,1.6203,1.6243,1.6264,1.6289,1.6295,1.6311,1.6363,1.6392,1.6433,1.6448,1.6454,1.6511,1.6504,1.6496,1.6476,1.652,1.654,1.6548,1.6445,1.6445,1.6444,1.6444,0,0,1.6116,1.617,1.618,1.6201,1.6242,1.6273,1.6315,1.6356,1.6378,1.641,1.6445,1.65,1.6493,1.6517,1.6525,1.6553,1.6601,1.6542,1.6543,1.6551,1.6665,1.667,1.6679,1.66,1.6602,1.6603,1.6662,0,1.6169,1.6243,1.6258,1.6322,1.6359,1.6363,1.64,1.6429,1.6446,1.648,1.6499,1.6537,1.6526,1.654,1.6568,1.6589,1.6623,1.6585,1.6633,1.6634,1.6622,1.6689,1.6693,1.6747,1.667,1.6671,1.6672,0,1.624,1.6275,1.6343,1.6381,1.6397,1.6429,1.6469,1.6502,1.6536,1.6547,1.6574,1.658,1.6624,1.6604,1.6665,1.6639,1.666,1.6673,1.6675,1.6679,1.6654,1.6693,1.6765,1.6773,1.6685,1.6684,1.6683,0,1.627,1.6335,1.6384,1.6402,1.6448,1.6471,1.6491,1.6524,1.6549,1.6584,1.66,1.664,1.6661,1.6692,1.6709,1.6693,1.6769,1.675,1.6778,1.6778,1.6792,1.6791,1.6867,1.6809,1.6808,1.6808,1.6808,0,1.6327,1.6368,1.6399,1.6429,1.6476,1.6494,1.654,1.656,1.659,1.6624,1.6631,1.6663,1.6684,1.6719,1.6733,1.6782,1.6792,1.6801,1.6804,1.68,1.6798,1.6812,1.6808,1.681,1.681,1.6809,1.6809,0,1.6368,1.639,1.6445,1.6485,1.6496,1.6529,1.6563,1.6593,1.6611,1.6654,1.6666,1.6694,1.6736,1.6757,1.6809,1.6818,1.6873,1.6874,1.6861,1.6862,1.6889,1.6886,1.6976,1.6988,1.6923,1.6923,1.6924,0,1.6402,1.6434,1.6478,1.6502,1.6523,1.6561,1.6587,1.6607,1.6633,1.6676,1.67,1.6743,1.6778,1.6845,1.6871,1.6911,1.6912,1.6941,1.6918,1.6913,1.6911,1.6909,1.6912,1.6944,1.6945,1.6946,1.6946,0,1.6459,1.6469,1.6506,1.6547,1.6578,1.6611,1.6644,1.6663,1.6688,1.6717,1.6761,1.6788,1.6843,1.6885,1.6928,1.6948,1.6951,1.6954,1.6962,1.6957,1.6948,1.6952,1.6871,1.6951,1.695,1.695,1.695,1.6949,1.6496,1.6526,1.6562,1.6603,1.663,1.6661,1.6692,1.6715,1.6752,1.6798,1.6807,1.6854,1.6889,1.6947,1.6969,1.7006,1.6999,1.7012,1.7015,1.7017,1.7018,1.6944,1.7014,1.7014,1.7014,1.7013,1.7013,0,1.6553,1.6578,1.6616,1.6662,1.6695,1.6697,1.6734,1.6761,1.6801,1.6835,1.687,1.692,1.6962,1.6992,1.7034,1.7058,1.706,1.7068,1.7066,1.7071,1.7022,1.701,1.7066,1.7066,1.7066,1.7066,1.7066,1.7066,1.6586,1.6636,1.6651,1.6715,1.6739,1.6785,1.6806,1.6835,1.6861,1.6918,1.6953,1.6973,1.7005,1.705,1.7089,1.7096,1.7111,1.7119,1.7126,1.708,1.7074,1.7069,1.7057,1.7122,1.7122,1.7172,1.7172,1.7173]},{"header":{"parameterUnit":"m.s-1","parameterCategory":1,"la1":30.2991,"la2":30.254,"lo1":-89.0895,"lo2":-89.0444,"dy":0.0017,"dx":0.0017,"nx":28,"ny":28,"refTime":"2023-08-12T03:00:00:Z","depth":0,"parameterNumber":3,"parameterNumberName":"V-component_of_WINDS"},"data":[0,0,0,0,0,0,0,0,0,0,0,0,0,0,0,0,0,0,0,0,0,0,0,0,0,0,0,0,0,0,0,0,0,0,0,0,0,0,0,0,0,0,0,0,0,0,0,0,0,0,0,0,0,0,0,0,0,0,3.8622,3.8622,0,3.8697,3.8698,3.8699,3.8712,3.8712,3.8711,3.871,3.8783,3.8785,3.8788,0,0,0,0,0,0,0,0,0,0,0,0,0,3.8481,3.8483,3.8621,3.8622,3.8623,3.8697,3.8698,3.8699,3.8712,3.8712,3.8711,3.871,3.8782,3.8785,3.8788,0,0,0,0,0,0,0,0,0,0,0,0,0,3.8548,3.8484,3.8621,3.8639,3.8641,3.8697,3.8698,3.8699,3.8712,3.8712,3.8711,3.871,3.8781,3.8785,3.8788,3.883,0,0,3.88,3.8801,0,0,0,0,0,0,0,0,3.8544,3.8553,3.8635,3.8638,3.8641,3.8694,3.8675,3.8743,3.8713,3.8685,3.871,3.8709,3.8754,3.876,3.8776,3.8833,3.8837,3.88,3.8802,3.8804,3.8805,0,0,0,0,0,0,0,3.8539,3.855,3.8651,3.8636,3.864,3.8641,3.8649,3.8688,3.8724,3.8688,3.8689,3.8698,3.8755,3.8772,3.8778,3.8838,3.88,3.8803,3.8806,3.8807,3.8929,3.893,0,0,0,0,0,0,3.8532,3.8546,3.8649,3.8654,3.8589,3.8644,3.8653,3.8678,3.8723,3.8729,3.8699,3.8698,3.8766,3.8773,3.878,3.883,3.8804,3.8807,3.881,3.8928,3.893,3.8931,0,0,0,0,0,0,3.8529,3.8541,3.8646,3.86,3.8613,3.8647,3.8675,3.868,3.8697,3.8732,3.8737,3.871,3.8766,3.8775,3.8817,3.8833,3.8809,3.8813,3.8927,3.8929,3.893,3.8931,0,0,0,0,0,0,3.8525,3.854,3.8558,3.86,3.8616,3.8684,3.8676,3.8682,3.8704,3.8705,3.8744,3.8749,3.8766,3.8811,3.8821,3.8837,3.8815,3.8926,3.8928,3.893,3.8929,3.8932,3.8934,0,0,0,0,0,3.852,3.8555,3.8559,3.8572,3.864,3.8685,3.8693,3.8713,3.8706,3.8723,3.8744,3.8748,3.8829,3.8816,3.8826,3.8844,3.8925,3.8927,3.893,3.8928,3.8932,3.8934,0,0,0,0,0,0,3.8513,3.8561,3.8566,3.8616,3.8646,3.8687,3.8709,3.8716,3.8747,3.8746,3.8767,3.8776,3.8816,3.8834,3.8818,3.8885,3.8876,3.8881,3.8872,3.8875,3.8877,3.8872,3.8819,0,0,0,0,0,3.8518,3.8552,3.8592,3.8632,3.8647,3.8675,3.8696,3.8708,3.8739,3.8752,3.8776,3.8805,3.8836,3.8857,3.8888,3.8932,3.8939,3.8949,3.8952,3.8954,3.8957,3.8978,3.8982,3.8938,3.8938,3.8938,0,0,3.8527,3.8557,3.8578,3.8631,3.8656,3.8689,3.8686,3.8722,3.8745,3.8756,3.8798,3.8817,3.8849,3.8892,3.8912,3.8908,3.897,3.8956,3.8958,3.896,3.8981,3.8985,3.8989,3.894,3.8939,3.8939,0,0,3.856,3.8588,3.8623,3.8648,3.8686,3.8704,3.8712,3.8751,3.8765,3.8807,3.8815,3.8842,3.8897,3.8919,3.8938,3.8977,3.898,3.8986,3.8998,3.9019,3.9022,3.9025,3.9037,3.9041,3.8989,3.8989,3.8989,0,3.8566,3.8618,3.864,3.8675,3.8697,3.8709,3.8743,3.8765,3.8811,3.8824,3.882,3.8887,3.8911,3.8957,3.8966,3.8982,3.8989,3.8981,3.9021,3.9024,3.9027,3.9038,3.9043,3.899,3.899,3.899,3.8989,0,3.8623,3.8658,3.8682,3.8726,3.8751,3.8785,3.8809,3.8831,3.884,3.8858,3.8898,3.8926,3.8962,3.8974,3.8984,3.9021,3.9017,3.9017,3.9008,3.9031,3.9042,3.9046,3.899,3.899,3.899,3.899,0,0,3.8654,3.8709,3.8717,3.8736,3.8778,3.8804,3.8837,3.8874,3.8891,3.8921,3.8947,3.8992,3.8991,3.9012,3.9023,3.9042,3.9067,3.9038,3.9039,3.9041,3.9107,3.9106,3.9111,3.907,3.9071,3.9072,3.9104,0,3.8691,3.8753,3.8772,3.8823,3.8854,3.8865,3.8893,3.892,3.8937,3.8964,3.8982,3.9013,3.901,3.9023,3.9041,3.906,3.908,3.9058,3.9093,3.9094,3.9083,3.9117,3.9118,3.9146,3.9108,3.9109,3.9109,0,3.8743,3.8774,3.8828,3.8863,3.8877,3.8903,3.8936,3.8963,3.8992,3.9002,3.9025,3.9034,3.9066,3.9056,3.9099,3.9083,3.9098,3.9109,3.9111,3.9114,3.9102,3.9119,3.9156,3.916,3.9117,3.9116,3.9116,0,3.8757,3.8813,3.8852,3.8868,3.8911,3.8928,3.8946,3.8975,3.8994,3.9023,3.9035,3.9066,3.9083,3.9105,3.9122,3.9114,3.9162,3.9154,3.917,3.9169,3.9179,3.9178,3.9217,3.9191,3.919,3.919,3.919,0,3.8795,3.8827,3.8859,3.8883,3.8918,3.8938,3.8972,3.899,3.9015,3.904,3.9051,3.9074,3.9096,3.9121,3.9134,3.9165,3.9173,3.9181,3.9183,3.9179,3.9178,3.9188,3.9186,3.9192,3.9191,3.9191,3.9191,0,3.8818,3.8841,3.8883,3.892,3.893,3.8954,3.8984,3.9005,3.9022,3.9054,3.9063,3.9088,3.9118,3.9137,3.9175,3.9183,3.9218,3.9221,3.9208,3.9209,3.9223,3.9221,3.9269,3.9275,3.9246,3.9246,3.9247,0,3.884,3.8865,3.8904,3.8922,3.8941,3.8971,3.8991,3.9011,3.903,3.9065,3.9081,3.9112,3.9138,3.9185,3.9205,3.9233,3.9236,3.9251,3.924,3.9234,3.9234,3.9232,3.9233,3.9252,3.9252,3.9253,3.9253,0,3.8876,3.8885,3.8915,3.8948,3.8972,3.8998,3.9025,3.9038,3.9062,3.9084,3.9115,3.9135,3.9173,3.9203,3.9232,3.9248,3.9253,3.9256,3.9261,3.9256,3.9247,3.925,3.9211,3.9255,3.9255,3.9254,3.9254,3.9254,3.8897,3.8919,3.895,3.8981,3.9003,3.9027,3.9049,3.9068,3.9095,3.9129,3.9139,3.9171,3.9196,3.9237,3.9253,3.9277,3.9275,3.9282,3.9284,3.9285,3.9284,3.9244,3.9282,3.9282,3.9282,3.9282,3.9282,0,3.8932,3.8952,3.8981,3.9018,3.9042,3.9047,3.9075,3.9094,3.9123,3.9147,3.9172,3.9207,3.9235,3.9257,3.9285,3.93,3.9303,3.9306,3.9305,3.9308,3.9285,3.9278,3.9303,3.9303,3.9303,3.9303,3.9303,3.9303,3.8953,3.8989,3.9002,3.9048,3.9067,3.91,3.9116,3.9136,3.9156,3.9194,3.9218,3.9233,3.9256,3.9286,3.931,3.9316,3.9325,3.9328,3.9334,3.9312,3.931,3.9307,3.93,3.933,3.933,3.9354,3.9354,3.9354]}]]